Погода в Верхнечусовских Городки

Россия / Пермский край     58°10′10″N   57°06′21″E
темп.,
°C
ветер,
м/с
пор.,
м/с
влажн.,
%
обл.,
%
осадки,
мм/ч
давл.,
гПа
погр.,
м
25 февраля, чт
чт2523:00−26ссз249733 0.0 103178
02:00−27ссз12980 0.0 103019
05:00−28сз11980 0.0 103119
08:00−29зсз119926 0.0 103019
11:00−23з119114 0.0 1030222
14:00−18юз128394 0.0 1029378
17:00−17юз238792 0.0 1028476
20:00−23ююв129860 0.0 102820
26 февраля, пт
пт2623:00−24ююв129969 0.0 102820
02:00−26ююв229867 0.0 102720
05:00−27юв229669 0.0 102836
08:00−28юв2296100 0.0 102735
11:00−22юв259078 0.0 1026265
14:00−17ююв36815 0.0 1024426
17:00−16ююв378415 0.0 1023456
20:00−21юв22931 0.0 102120
27 февраля, сб
сб2723:00−21юв23940 0.0 102042
02:00−22вюв25960 0.0 101892
05:00−22вюв38910 0.0 1016183
08:00−23в39907 0.0 1014225
11:00−19в498931 0.0 1012352
14:00−15вюв51185100 0.0 1010608
17:00−14в61187100 0.0 1010749
20:00−17вюв51192100 0.2 1011701
28 февраля, вс
вс2823:00−19в51190100 0.3 1011614
02:00−19в51191100 0.1 1011576
05:00−18в41094100 0.3 1011562
08:00−19в41095100 0.3 1011495
11:00−19в5993100 0.5 1011477
14:00−16в4891100 0.2 1011494
17:00−16всв4792100 0.4 1012507
20:00−18всв4994100 0.3 1013470
1 марта, пн
пн123:00−19в389499 0.4 1015409
02:00−19всв389492 0.1 1016369
05:00−22св259686 0.1 1017166
08:00−23св229512 0.0 101827
11:00−17ссв12877 0.0 1018240
14:00−12ссз128035 0.0 1017463
17:00−12сз248760 0.0 1017450
20:00−18з129523 0.0 101620